Location: Chantarel
(45.1638°N, 1.7873°E)
Time: 17:59:17
(UTC+00:00)

SJ 16-02 - Pass Details

Date: 03 March 2021
Orbit: 605 x 617 km, 75.0° (Epoch: 16 April)

Event Time Altitude Azimuth Distance (km) Brightness Sun altitude
Rises 19:34:33 0° 349° (N) 2,883 5.1 -20.4°
Reaches altitude 10° 19:37:04 10° 1° (N) 1,976 4.1 -20.8°
Enters shadow 19:39:33 24° 31° (NNE) 1,290 2.8 -21.2°
